Location: Julian California
(33.0790°N, 116.6010°W)
Time: 14:48:43
(UTC-07:00)

Cosmos 2218 Rocket - Pass Details

Date: 19 May 2017
Orbit: 955 x 1007 km, 82.9° (Epoch: 24 May)

Event Time Altitude Azimuth Distance (km) Brightness Sun altitude
Rises 23:21:21 0° 353° (N) 3,634 8.0 -33.4°
Reaches altitude 10° 23:23:51 10° 354° (N) 2,686 7.1 -33.6°
Enters shadow 23:28:37 57° 354° (N) 1,115 4.4 -34.0°
